DateTimeUTC,F1_A11,F1_S11,BsB_S11,BsG_S11,BsR_S11,BbsB_S11,BbsG_S11,BbsR_S11,BaB_A11,BaG_A11,BaR_A11,Tu_S11,T_S11,Uu_S11,U_S11,P_S11,T1_A11
2021-08-31T05:00:00Z,00000200,21000000,,,,,,,0000.46,0000.15,0000.22,17.7,25.0,,00.0,0674.1,30.9
2021-08-31T05:01:00Z,00000200,21000000,,,,,,,-000.15,0000.17,-000.01,17.7,25.0,,00.0,0674.1,30.9
2021-08-31T05:02:00Z,00000200,21000000,,,,,,,-000.03,0000.13,0000.35,17.7,25.0,,00.0,0674.1,30.9
2021-08-31T05:03:00Z,00000200,61000000,,,,,,,-000.01,-000.19,-000.24,17.7,25.0,,00.0,0674.1,30.9
2021-08-31T05:04:00Z,00000200,41000000,0000.07,0000.36,0000.22,0000.26,0000.15,0000.35,0000.26,0000.24,0000.01,18.3,25.0,,00.0,0674.9,30.9
2021-08-31T05:05:00Z,00000200,01000000,0000.08,-000.01,0000.24,0000.45,-000.06,0000.18,-000.12,-000.36,0000.06,18.4,25.0,,00.0,0675.0,30.9
2021-08-31T05:06:00Z,00000200,01000000,0000.88,0000.15,0000.00,0000.26,0000.03,-000.20,-000.14,0000.11,-000.36,18.5,25.0,,00.0,0675.0,30.9
2021-08-31T05:07:00Z,00000200,01000000,0000.08,-000.13,-000.02,0000.54,0000.03,0000.15,-000.17,-000.28,0000.11,18.6,25.0,,00.0,0675.0,31.0
2021-08-31T05:08:00Z,00000200,01000000,0000.30,-000.01,0000.13,0000.84,0000.39,0000.09,-000.42,-000.13,-000.24,18.6,25.0,,00.0,0675.0,31.0
2021-08-31T05:09:00Z,00000200,01000000,0000.56,0000.31,0000.14,0000.19,0000.29,0000.10,0000.38,-000.33,-000.06,18.5,25.0,,00.0,0675.0,30.9
2021-08-31T05:10:00Z,00000200,01000000,0000.53,0000.18,-000.08,-000.40,-000.02,-000.08,-000.19,0000.52,0000.54,18.4,24.9,,00.0,0675.0,30.9
2021-08-31T05:11:00Z,00000200,01000000,-000.63,0000.12,0000.18,0000.76,-000.06,0000.06,0000.21,0000.03,-000.24,18.3,24.9,,00.0,0675.0,30.9
2021-08-31T05:12:00Z,00000200,01000000,0000.24,0000.73,0000.10,0000.34,0000.23,0000.18,0000.01,-000.38,-000.52,18.2,24.9,,00.0,0675.0,30.9
2021-08-31T05:13:00Z,00000200,01000000,0000.65,0000.04,0000.71,0000.83,0000.17,0000.59,0000.02,0000.16,0000.20,18.1,24.8,,00.0,0675.0,30.9
2021-08-31T05:14:00Z,00000200,01000000,0000.29,0000.25,0000.10,0000.50,-000.05,-000.02,0000.03,-000.08,-000.04,18.1,24.8,,00.0,0675.0,30.9
2021-08-31T05:15:00Z,00000200,01000000,0000.36,0000.31,0000.09,0000.47,0000.21,0000.26,-000.01,0000.49,0000.39,18.1,24.8,,00.0,0675.0,30.9
2021-08-31T05:16:00Z,00000200,01000000,0000.20,0000.14,0000.42,0000.63,-000.01,0000.24,0000.26,-000.17,0000.13,18.2,24.8,,00.0,0675.0,30.9
2021-08-31T05:17:00Z,00000200,01000000,0000.45,0000.59,0000.42,0000.72,0000.10,0000.15,0000.02,0000.49,0000.20,18.3,24.9,,00.0,0675.0,30.9
2021-08-31T05:18:00Z,00000200,01000000,0000.06,0000.33,0000.05,0000.90,0000.23,-000.15,0000.03,-000.12,-000.06,18.4,24.9,,00.0,0675.0,31.0
2021-08-31T05:19:00Z,00000200,01000000,0000.35,-000.01,0000.26,0000.58,0000.11,-000.01,0000.16,0000.09,0000.19,18.5,24.9,,00.0,0675.0,31.0
2021-08-31T05:20:00Z,00000200,01000000,0000.35,0000.57,0000.06,0000.93,0000.14,0000.11,0000.07,0000.05,0000.14,18.6,25.0,,00.0,0675.0,31.0
2021-08-31T05:21:00Z,00000200,01000000,0000.34,0000.36,0000.04,0000.69,0000.21,-000.03,-000.19,0000.00,-000.05,18.6,25.0,,00.0,0675.0,30.9
2021-08-31T05:22:00Z,00000200,01000000,0000.19,0000.29,0000.05,0000.14,0000.12,-000.16,0000.58,0000.36,-000.28,18.5,25.0,,00.0,0675.0,30.9
2021-08-31T05:23:00Z,00000200,01000000,0000.37,0000.28,-000.16,0000.55,0000.26,0000.04,-000.26,-000.59,-000.16,18.4,24.9,,00.0,0675.0,30.9
2021-08-31T05:24:00Z,00000200,01000000,0000.60,0000.35,0000.02,0000.72,0000.15,0000.06,-000.12,0000.06,0000.14,18.3,24.9,,00.0,0675.0,30.9
2021-08-31T05:25:00Z,00000200,01000000,0000.27,0000.24,0000.03,0000.61,0000.24,0000.00,0000.32,0000.63,0000.20,18.3,24.8,,00.0,0675.0,30.9
2021-08-31T05:26:00Z,00000200,01000000,0001.21,0000.25,0000.15,0000.61,0000.05,-000.11,0000.25,-000.48,0000.14,18.2,24.8,,00.0,0675.0,30.9
2021-08-31T05:27:00Z,00000200,01000000,0000.88,0000.25,-000.07,0000.54,0000.12,-000.10,-000.10,0000.30,-000.32,18.1,24.7,,00.0,0675.0,30.9
2021-08-31T05:28:00Z,00000200,01000000,0000.99,0000.19,0000.37,0000.29,-000.25,0000.06,0000.04,-000.09,0000.26,18.0,24.7,,00.0,0675.0,30.9
2021-08-31T05:29:00Z,00000200,01000000,0000.44,0000.10,0000.24,0000.45,0000.13,-000.22,-000.13,-000.18,0000.19,18.0,24.7,,00.0,0675.0,30.9
2021-08-31T05:30:00Z,00000200,01000000,0000.57,0000.23,0000.16,0000.17,0000.06,0000.14,0000.18,0000.47,-000.09,18.0,24.7,,00.0,0675.0,30.9
2021-08-31T05:31:00Z,00000200,01000000,0000.40,0000.38,0000.09,0000.45,0000.03,0000.26,0000.22,0000.17,0000.21,18.1,24.7,,00.0,0675.0,30.9
2021-08-31T05:32:00Z,00000200,01000000,-000.19,0000.53,0000.16,0000.69,0000.22,-000.03,-000.02,0000.18,-000.23,18.2,24.7,,00.0,0675.0,30.9
2021-08-31T05:33:00Z,00000200,01000000,0000.93,-000.25,-000.06,0000.85,0000.09,0000.03,0000.02,-000.08,0000.32,18.4,24.8,,00.0,0675.0,30.9
2021-08-31T05:34:00Z,00000200,01000000,0000.71,0000.28,-000.03,0000.31,0000.08,0000.05,0000.32,0000.06,0000.05,18.5,24.9,,00.0,0675.0,31.0
2021-08-31T05:35:00Z,00000200,01000000,0000.15,0000.21,-000.04,0000.78,0000.01,-000.45,-000.24,0000.40,0000.55,18.6,24.9,,00.0,0675.0,30.9
2021-08-31T05:36:00Z,00000200,01000000,0001.04,0000.36,0000.31,0000.49,0000.16,-000.07,0000.27,0000.09,-000.51,18.6,24.9,,00.0,0674.9,31.0
2021-08-31T05:37:00Z,00000200,01000000,0000.18,0000.16,0000.28,0000.12,0000.14,0000.28,0000.18,-000.08,0000.16,18.6,25.0,,00.0,0674.9,31.0
2021-08-31T05:38:00Z,00000200,01000000,0000.41,0000.21,0000.00,0000.86,0000.16,-000.20,-000.07,-000.13,0000.11,18.6,25.0,,00.0,0674.9,30.9
2021-08-31T05:39:00Z,00000200,01000000,0000.19,0000.11,0000.06,0000.27,0000.06,-000.14,0000.26,0000.50,0000.48,18.5,24.9,,00.0,0674.8,30.9
2021-08-31T05:40:00Z,00000200,01000000,-000.10,0000.15,0000.04,0000.61,0000.05,-000.11,0000.57,0000.29,-000.05,18.4,24.9,,00.0,0674.8,30.9
2021-08-31T05:41:00Z,00000200,01000000,-000.22,0000.23,0000.53,0000.65,-000.08,-000.03,0000.21,0000.23,0000.29,18.3,24.8,,00.0,0674.8,30.9
2021-08-31T05:42:00Z,00000200,01000000,0000.49,0000.41,0000.19,0000.71,0000.10,0000.19,0000.06,-000.17,-000.01,18.3,24.8,,00.0,0674.8,30.9
2021-08-31T05:43:00Z,00000200,01000000,0000.02,0000.04,0000.39,0000.27,0000.10,0000.00,0000.05,0000.01,0000.23,18.2,24.7,,00.0,0674.8,30.9
2021-08-31T05:44:00Z,00000200,01000000,0001.37,0000.12,0000.26,0000.74,0000.03,0000.51,0000.06,0000.12,0000.05,18.2,24.7,,00.0,0674.8,30.9
2021-08-31T05:45:00Z,00000200,01000000,-000.15,0000.13,-000.20,0000.31,0000.06,0000.19,0000.40,0000.22,0000.18,18.2,24.7,,00.0,0674.8,30.9
2021-08-31T05:46:00Z,00000200,01000000,0000.01,0000.11,0000.15,0000.26,-000.25,0000.23,0000.08,0000.15,0000.13,18.3,24.8,,00.0,0674.8,30.9
2021-08-31T05:47:00Z,00000200,01000000,0000.86,0000.25,0000.10,0000.61,0000.07,-000.02,-000.21,0000.19,-000.15,18.4,24.8,,00.0,0674.8,30.9
2021-08-31T05:48:00Z,00000200,01000000,0000.51,0000.13,0000.25,0000.56,0000.50,0000.19,0000.14,0000.16,-000.20,18.5,24.9,,00.0,0674.8,30.9
2021-08-31T05:49:00Z,00000200,01000000,0000.44,0000.28,-000.06,0000.68,0000.04,-000.01,0000.00,-000.27,0000.30,18.6,24.9,,00.0,0674.7,31.0
2021-08-31T05:50:00Z,00000200,01000000,0000.79,0000.30,0000.13,0000.52,0000.24,-000.15,-000.25,0000.03,-000.26,18.7,25.0,,00.0,0674.7,31.0
2021-08-31T05:51:00Z,00000200,01000000,-000.41,-000.05,0000.32,0000.39,0000.05,-000.11,-000.50,-000.64,-000.43,18.7,25.0,,00.0,0674.7,31.0
2021-08-31T05:52:00Z,00000200,01000000,0000.43,-000.05,0000.10,0000.09,0000.05,0000.14,-000.13,-000.24,-000.01,18.6,25.0,,00.0,0674.7,31.0
2021-08-31T05:53:00Z,00000200,01000000,0000.26,0000.09,0000.28,0000.53,0000.21,0000.08,-000.01,-000.06,-000.29,18.6,25.0,,00.0,0674.7,30.9
2021-08-31T05:54:00Z,00000200,01000000,0000.01,0000.33,-000.03,0000.07,0000.28,0000.05,-000.16,0000.03,0000.02,18.5,24.9,,00.0,0674.7,30.9
2021-08-31T05:55:00Z,00000200,01000000,0000.47,0000.25,0000.23,0000.86,-000.13,0000.16,0000.30,0000.02,-000.36,18.4,24.9,,00.0,0674.7,30.9
2021-08-31T05:56:00Z,00000200,01000000,0000.16,0000.20,0000.12,0000.32,-000.18,0000.17,-000.03,0000.37,0000.50,18.3,24.9,,00.0,0674.7,30.9
2021-08-31T05:57:00Z,00000200,41000000,,,,,,,0000.34,0000.12,0000.22,18.3,24.9,,00.0,0674.7,30.9
2021-08-31T05:58:00Z,00000200,61000000,,,,,,,-000.71,-000.60,-000.48,17.9,24.9,,00.0,0673.7,30.9
2021-08-31T05:59:00Z,00000200,21000000,,,,,,,0000.23,-000.14,0000.12,17.8,25.0,,00.0,0673.7,30.9
